Weather History for KGEV - March, 2014

Change the Weather History Date:

Sunday, March 2, 2014

  Actual Average Record
Temperature  
Mean Temperature 50 °F -  
Max Temperature 64 °F 52 °F 73 °F (1976)
Min Temperature 35 °F 28 °F 9 °F (1980)
Degree Days  
Heating Degree Days 16    
Moisture  
Dew Point 38 °F    
Average Humidity 63    
Maximum Humidity 94    
Minimum Humidity 43    
Precipitation  
Precipitation 0.00 in - - ()
Sea Level Pressure  
Sea Level Pressure 30.06 in    
Wind  
Wind Speed 5 mph (SW)    
Max Wind Speed 20 mph    
Max Gust Speed 31 mph    
Visibility 10 miles    
Events Rain    
Averages and records for this station are not official NWS values.
T = Trace of Precipitation, MM = Missing Value Source: NWS Daily Summary

Daily Weather History Graph

Daily Weather History Graph

Search for Another Location

Airport or City:

Trip Planner

Search our weather history database for the weather conditions in past years. The results will help you decide how hot, cold, wet, or windy it might be!

Date:

Astronomy

Mar. 02, 2014 Rise Set
Actual Time 6:54 AM EST 6:21 PM EST
Civil Twilight 6:28 AM EST 6:47 PM EST
Nautical Twilight 5:59 AM EST 7:17 PM EST
Astronomical Twilight 5:29 AM EST 7:46 PM EST
Moon 7:28 AM EST (3/2) 8:11 PM EST (3/2)
Length of Visible Light 12h 18m
Length of Day
11h 26m
Waxing Crescent, 3% of the Moon is Illuminated
Mar 2
Waxing Crescent
Mar 8
First Quarter
Mar 16
Full
Mar 23
Last Quarter
Mar 30
New

Hourly Weather History & Observations

Time (EST) Temp. Windchill Dew Point Humidity Pressure Visibility Wind Dir Wind Speed Gust Speed Precip Events Conditions
12:15 AM 36.5 °F - 24.6 °F 62% 30.19 in 10.0 mi Calm Calm - N/A   Clear
12:35 AM 35.8 °F - 24.6 °F 64% 30.18 in 10.0 mi Calm Calm - N/A   Clear
12:55 AM 35.8 °F 33.0 °F 24.8 °F 64% 30.16 in 10.0 mi SE 3.5 mph - N/A   Clear
1:15 AM 36.0 °F - 24.8 °F 64% 30.17 in 10.0 mi Calm Calm - N/A   Clear
1:35 AM 35.6 °F - 24.8 °F 65% 30.17 in 10.0 mi Calm Calm - N/A   Clear
1:55 AM 35.8 °F - 25.0 °F 65% 30.16 in 10.0 mi Calm Calm - N/A   Clear
2:15 AM 36.1 °F 33.5 °F 25.3 °F 65% 30.15 in 10.0 mi SE 3.5 mph - N/A   Clear
2:35 AM 35.2 °F - 24.8 °F 66% 30.15 in 10.0 mi Calm Calm - N/A   Clear
2:55 AM 36.0 °F - 25.2 °F 65% 30.15 in 10.0 mi Calm Calm - N/A   Clear
3:15 AM 39.2 °F - 28.2 °F 65% 30.13 in 10.0 mi Calm Calm - N/A   Clear
3:35 AM 40.6 °F 37.5 °F 31.5 °F 70% 30.13 in 10.0 mi West 4.6 mph - N/A   Clear
3:55 AM 42.4 °F 35.7 °F 32.5 °F 68% 30.12 in 10.0 mi West 12.7 mph 20.7 mph N/A   Scattered Clouds
4:15 AM 45.7 °F 40.2 °F 34.5 °F 65% 30.13 in 10.0 mi West 11.5 mph 20.7 mph N/A   Mostly Cloudy
4:35 AM 46.6 °F - 35.6 °F 66% 30.13 in 10.0 mi West 12.7 mph 23.0 mph N/A   Overcast
4:55 AM 47.1 °F - 36.0 °F 65% 30.13 in 10.0 mi West 11.5 mph 23.0 mph N/A   Overcast
5:15 AM 47.5 °F - 36.1 °F 65% 30.13 in 10.0 mi WNW 15.0 mph 27.6 mph N/A   Overcast
5:35 AM 47.7 °F - 36.5 °F 65% 30.13 in 10.0 mi WNW 17.3 mph 29.9 mph N/A   Overcast
5:55 AM 48.2 °F - 36.9 °F 65% 30.13 in 10.0 mi WNW 19.6 mph 26.5 mph N/A   Overcast
6:15 AM 48.7 °F - 37.4 °F 65% 30.12 in 10.0 mi WNW 18.4 mph 29.9 mph N/A   Overcast
6:35 AM 49.1 °F - 37.4 °F 64% 30.12 in 10.0 mi West 19.6 mph 27.6 mph N/A   Overcast
6:55 AM 49.3 °F - 37.4 °F 64% 30.13 in 10.0 mi WNW 15.0 mph 25.3 mph N/A   Overcast
7:15 AM 49.1 °F - 37.6 °F 64% 30.13 in 10.0 mi West 4.6 mph - N/A   Scattered Clouds
7:35 AM 48.0 °F - 37.4 °F 67% 30.13 in 10.0 mi Calm Calm - N/A   Mostly Cloudy
7:55 AM 48.7 °F - 37.4 °F 65% 30.12 in 10.0 mi East 3.5 mph - N/A   Mostly Cloudy
8:15 AM 49.8 °F - 37.6 °F 63% 30.12 in 10.0 mi Calm Calm - N/A   Scattered Clouds
8:35 AM 50.9 °F - 37.9 °F 61% 30.13 in 10.0 mi Calm Calm - N/A   Clear
8:55 AM 50.5 °F - 37.6 °F 61% 30.13 in 10.0 mi Calm Calm - N/A   Clear
9:15 AM 50.9 °F - 37.4 °F 60% 30.13 in 10.0 mi ESE 4.6 mph - N/A   Clear
9:35 AM 51.1 °F - 37.2 °F 59% 30.11 in 10.0 mi SSE 3.5 mph - N/A   Scattered Clouds
9:55 AM 53.1 °F - 37.4 °F 55% 30.11 in 10.0 mi South 3.5 mph - N/A   Scattered Clouds
10:15 AM 54.5 °F - 37.6 °F 53% 30.11 in 10.0 mi ESE 4.6 mph - N/A   Mostly Cloudy
10:35 AM 55.4 °F - 37.0 °F 50% 30.10 in 10.0 mi SE 3.5 mph - N/A   Mostly Cloudy
10:55 AM 57.6 °F - 36.9 °F 46% 30.09 in 10.0 mi ESE 5.8 mph - N/A   Scattered Clouds
11:15 AM 58.5 °F - 38.3 °F 47% 30.08 in 10.0 mi SE 3.5 mph - N/A   Mostly Cloudy
11:35 AM 59.4 °F - 39.6 °F 48% 30.08 in 10.0 mi Calm Calm - N/A   Overcast
11:55 AM 56.5 °F - 36.0 °F 46% 30.08 in 10.0 mi ESE 9.2 mph - N/A   Overcast
12:15 PM 56.3 °F - 35.8 °F 46% 30.07 in 10.0 mi ESE 6.9 mph - N/A   Overcast
12:35 PM 57.0 °F - 36.3 °F 46% 30.07 in 10.0 mi ESE 5.8 mph - N/A   Overcast
12:55 PM 58.3 °F - 36.9 °F 45% 30.05 in 10.0 mi SE 4.6 mph - N/A   Overcast
1:15 PM 58.1 °F - 37.0 °F 45% 30.06 in 10.0 mi West 4.6 mph - N/A   Overcast
1:35 PM 58.3 °F - 41.2 °F 53% 30.05 in 10.0 mi SSW 6.9 mph - N/A   Overcast
1:55 PM 59.5 °F - 43.2 °F 55% 30.04 in 10.0 mi WSW 15.0 mph 28.8 mph N/A   Overcast
2:15 PM 60.6 °F - 42.8 °F 52% 30.02 in 10.0 mi WSW 10.4 mph 16.1 mph N/A   Overcast
2:35 PM 62.2 °F - 42.3 °F 48% 30.02 in 10.0 mi WSW 5.8 mph - N/A   Overcast
2:55 PM 62.1 °F - 41.7 °F 47% 30.01 in 10.0 mi WSW 8.1 mph 19.6 mph N/A   Overcast
3:15 PM 63.5 °F - 41.7 °F 45% 29.99 in 10.0 mi West 19.6 mph 31.1 mph N/A   Overcast
3:35 PM 64.2 °F - 41.2 °F 43% 29.99 in 10.0 mi West 10.4 mph 28.8 mph N/A   Overcast
3:55 PM 62.4 °F - 40.6 °F 45% 29.99 in 10.0 mi SSW 4.6 mph 19.6 mph N/A   Overcast
4:15 PM 63.0 °F - 41.0 °F 45% 29.98 in 10.0 mi South 4.6 mph 27.6 mph N/A   Overcast
4:35 PM 60.1 °F - 37.6 °F 43% 29.98 in 10.0 mi SE 3.5 mph - N/A   Mostly Cloudy
4:55 PM 59.4 °F - 37.9 °F 45% 29.97 in 10.0 mi SSE 3.5 mph - N/A   Overcast
5:15 PM 58.6 °F - 38.1 °F 46% 29.97 in 10.0 mi SE 3.5 mph - N/A   Overcast
5:35 PM 57.7 °F - 38.5 °F 49% 29.96 in 10.0 mi SE 3.5 mph - N/A   Overcast
5:55 PM 58.1 °F - 38.5 °F 48% 29.97 in 10.0 mi SSE 3.5 mph - N/A   Overcast
6:15 PM 57.4 °F - 39.2 °F 51% 29.96 in 10.0 mi SSE 3.5 mph - N/A   Overcast
6:35 PM 57.0 °F - 41.0 °F 55% 30.00 in 10.0 mi WSW 6.9 mph - N/A   Drizzle
6:55 PM 54.9 °F - 43.2 °F 65% 29.99 in 10.0 mi West 3.5 mph - N/A Rain Light Rain
7:15 PM 55.4 °F - 42.8 °F 63% 29.99 in 10.0 mi Calm Calm - N/A Rain Rain
7:35 PM 53.6 °F - 44.1 °F 70% 29.98 in 10.0 mi Calm Calm - N/A   Overcast
7:55 PM 52.7 °F - 46.6 °F 80% 29.98 in 10.0 mi NW 4.6 mph - N/A   Overcast
8:15 PM 52.7 °F - 49.3 °F 88% 29.97 in 10.0 mi Calm Calm - N/A   Overcast
8:35 PM 51.4 °F - 47.8 °F 87% 29.96 in 10.0 mi Calm Calm - N/A   Overcast
8:55 PM 51.4 °F - 47.1 °F 85% 29.96 in 10.0 mi Calm Calm - N/A   Overcast
9:15 PM 50.9 °F - 47.3 °F 87% 29.94 in 10.0 mi North 3.5 mph - N/A   Mostly Cloudy
9:35 PM 50.2 °F - 48.4 °F 94% 29.94 in 10.0 mi Calm Calm - N/A   Scattered Clouds
9:55 PM 50.4 °F - 48.2 °F 92% 29.93 in 10.0 mi Calm Calm - N/A   Mostly Cloudy
10:15 PM 50.5 °F - 48.6 °F 93% 29.93 in 10.0 mi NNW 6.9 mph - N/A   Overcast
10:35 PM 50.4 °F - 48.7 °F 94% 29.94 in 4.0 mi NNW 5.8 mph - N/A   Overcast
10:55 PM 50.2 °F - 48.6 °F 94% 29.93 in 5.0 mi Calm Calm - N/A   Overcast
11:15 PM 50.2 °F - 48.6 °F 94% 29.94 in 5.0 mi Calm Calm - N/A   Overcast
11:35 PM 50.9 °F - 49.1 °F 94% 29.93 in 5.0 mi Calm Calm - N/A Rain Rain
11:55 PM 52.3 °F - 48.6 °F 87% 29.93 in 7.0 mi West 13.8 mph 17.3 mph N/A   Drizzle